Preview of NWS' New Version of Forecast
This preview is not operational and should not be used for support decisions.

Regional Weather Roundup (RWR)

Issued by National Weather Service (NWS)

                            
000
ASUS43 KDMX 220406
RWRIA 

WEATHER ROUNDUP FOR IOWA
NATIONAL WEATHER SERVICE DES MOINES IA
1100 PM CDT SUN JUL 21 2019

NOTE: "FAIR" INDICATES FEW OR NO CLOUDS BELOW 12,000 FEET WITH NO
SIGNIFICANT WEATHER AND/OR OBSTRUCTIONS TO VISIBILITY.

* - THESE STATIONS ARE NOT NWS STATIONS...THUS NOT UNDER NWS
QUALITY CONTROL.  THEY ALSO DO NOT REPORT WEATHER SUCH 
AS PRECIPITATION OR FOG.  

IAZ001>003-012>014-020>022-031>034-043>046-220500-
   NORTHWEST IOWA
  
CITY           SKY/WX    TMP DP  RH WIND       PRES   REMARKS
CARROLL *      CLOUDY    70  66  88 N5        30.12S                  
CHEROKEE *     CLOUDY    69  61  75 N6        30.15S                  
DENISON *      CLOUDY    70  68  94 N3        30.15R                  
LE MARS *      MOCLDY    66  63  88 N6        30.16S                  
SHELDON *        N/A     64  64 100 N5        30.16R                  
SIOUX CITY     MOCLDY    69  61  75 N9        30.16R                  
SPENCER        CLOUDY    69  61  75 N8        30.16R                  
STORM LAKE *   CLOUDY    70  64  83 N10       30.12S                  
$$
 
IAZ055>058-069>071-079>083-090>094-220500-
   SOUTHWEST IOWA
  
CITY           SKY/WX    TMP DP  RH WIND       PRES   REMARKS
ATLANTIC *     CLOUDY    66  66 100 N6        30.11R                  
CLARINDA *     CLEAR     68  68 100 N7        30.10S                  
COUNCIL BLFS * CLOUDY    68  68 100 N6        30.11S                  
CRESTON *      CLEAR     68  66  94 N9        30.09S                  
HARLAN  *      MOCLDY    68  66  94 N6        30.12S                  
RED OAK *      PTCLDY    66  64  94 N5        30.10S                  
SHENANDOAH *   CLEAR     68  66  94 NE5       30.09S                  
$$
 
IAZ047>049-059>061-072>074-084-220500-
   CENTRAL IOWA
  
CITY           SKY/WX    TMP DP  RH WIND       PRES   REMARKS
AMES           CLEAR     69  64  84 N6        30.09R                  
ANKENY *       CLEAR     68  64  88 CALM      30.09R                  
BOONE *        MOCLDY    68  68 100 N6        30.09S                  
CHARITON *     CLEAR     70  70 100 N8        30.06S                  
DES MOINES     MOCLDY    72  61  68 NE9       30.07R                  
GRINNELL*      CLEAR     69  61  74 N7        30.08F                  
KNOXVILLE *    CLOUDY    72  66  83 N7        30.06S                  
MARSHALLTOWN   PTCLDY    68  60  75 N9        30.07S                  
NEWTON *       CLEAR     70  63  78 N7        30.07R                  
PELLA *        CLEAR     69  64  85 N3        30.08S                  
$$
 
IAZ004>006-015-016-023>025-035-036-220500-
   NORTH CENTRAL IOWA
  
CITY           SKY/WX    TMP DP  RH WIND       PRES   REMARKS
ALGONA *       CLOUDY    66  66 100 W5        30.12S                  
CLARION *      CLOUDY    68  66  94 N5        30.11S                  
FORT DODGE *   CLOUDY    70  66  87 NW3       30.12S                  
MASON CITY     PTCLDY    68  63  84 NW5       30.12S                  
FOREST CITY *  FAIR      70  63  78 NW5       30.11S                  
$$

IAZ007>011-017>019-026>030-037>042-050>054-066-220500-
   NORTHEAST IOWA
  
CITY           SKY/WX    TMP DP  RH WIND       PRES   REMARKS
CEDAR RAPIDS   FAIR      71  61  70 N7        30.05R                  
CHARLES CITY * CLOUDY    68  64  88 CALM      30.09F                  
CLINTON *      FAIR      70  65  84 N9        30.03S                  
DECORAH *      FAIR      68  61  77 N5        30.07S                  
DUBUQUE        FAIR      68  61  78 N6        30.06R                  
MONTICELLO *   FAIR      68  64  88 N3        30.05S                  
OELWEIN *      MOCLDY    66  64  94 N5        30.08S                  
WATERLOO       MOCLDY    70  61  73 NW5       30.06S                  
$$
 
IAZ064-065-067-068-078-220500-
   EAST CENTRAL IOWA
  
CITY           SKY/WX    TMP DP  RH WIND       PRES   REMARKS
DAVENPORT      FAIR      72  62  71 N8        30.04R                  
IOWA CITY      FAIR      76  62  62 N8        30.05S                  
MUSCATINE *    CLOUDY    73  63  68 N8        30.02F                  
QUAD CITIES    FAIR      77  60  55 N5        30.01R                  
$$
 
IAZ062-063-075>077-085>089-095>099-220500-
   SOUTHEAST IOWA
  
CITY           SKY/WX    TMP DP  RH WIND       PRES   REMARKS
BURLINGTON     LGT RAIN  70  66  87 CALM      30.01F                  
FAIRFIELD *    MOCLDY    72  64  78 N9        30.04R                  
FORT MADISON * LGT RAIN  70  66  88 N9        30.03S                  
KEOKUK *       CLOUDY    73  66  78 N10G18    30.00S                  
OSKALOOSA *    LGT RAIN  70  64  80 N5        30.06R                  
CENTERVILLE *  FAIR      70  68  94 N12       30.06S                  
OTTUMWA        LGT RAIN  71  65  81 N7        30.05R                  
WASHINGTON *   CLEAR     70 -35   1 N7        30.02S                  
$$

ABBREVIATIONS USED IN REMARKS
   TC - TEMPERATURES IN CELSIUS
  WCI - WIND CHILL INDEX
   HX - HEAT INDEX
  VSB - VISIBILITY  
$$